contact:dominique.lefevre@mio.osupytheas.fr, maurice.libes@osupytheas.fr, didier.mallarino@osupytheas.fr
Project:EMSO http://www.emso-fr.org/EMSO-France
Depth: 2436.0 m
Title:EMSO Ligure Ouest : Data MII capteur CSTAR
DateTime,Latitude,Longitude,Instrument_Serial,Reference_Counts,Signal_Counts,Corrected_Signal_raw_counts,Calculated_Beam_c_inverse_meters,Internal_thermistor_counts
DateTime,Latitude,Longitude,Instrument_Serial,Reference_Counts,Signal_Counts,Corrected_Signal_raw_counts,Calculated_Beam_c_inverse_meters,Internal_thermistor_counts
2021-12-26T00:00:58,42.805,6.029,CST-1368DR,5016,6433,13708,0.521,551
2021-12-26T00:04:00,42.805,6.029,CST-1368DR,5016,6431,13705,0.522,551
2021-12-26T00:07:01,42.805,6.029,CST-1368DR,5016,6432,13706,0.522,551
2021-12-26T00:10:03,42.805,6.029,CST-1368DR,5016,6431,13704,0.522,551
2021-12-26T00:13:05,42.805,6.029,CST-1368DR,5016,6431,13704,0.522,551
2021-12-26T00:16:06,42.805,6.029,CST-1368DR,5016,6432,13706,0.522,551
2021-12-26T00:19:08,42.805,6.029,CST-1368DR,5016,6432,13706,0.522,551
2021-12-26T00:22:09,42.805,6.029,CST-1368DR,5016,6432,13706,0.522,551
2021-12-26T00:25:11,42.805,6.029,CST-1368DR,5016,6432,13706,0.522,550
2021-12-26T00:28:12,42.805,6.029,CST-1368DR,5016,6432,13707,0.522,551
2021-12-26T00:31:14,42.805,6.029,CST-1368DR,5016,6432,13706,0.522,551
2021-12-26T00:34:16,42.805,6.029,CST-1368DR,5016,6429,13701,0.523,551
2021-12-26T00:37:17,42.805,6.029,CST-1368DR,5016,6431,13705,0.522,550
2021-12-26T00:40:19,42.805,6.029,CST-1368DR,5016,6431,13704,0.522,551
2021-12-26T00:43:20,42.805,6.029,CST-1368DR,5016,6431,13705,0.522,551
2021-12-26T00:46:22,42.805,6.029,CST-1368DR,5016,6431,13705,0.522,551
2021-12-26T00:49:24,42.805,6.029,CST-1368DR,5016,6432,13707,0.522,551
2021-12-26T00:52:25,42.805,6.029,CST-1368DR,5016,6432,13707,0.522,551
2021-12-26T00:55:27,42.805,6.029,CST-1368DR,5016,6431,13705,0.522,551
2021-12-26T00:58:28,42.805,6.029,CST-1368DR,5016,6431,13705,0.522,551
2021-12-26T01:01:30,42.805,6.029,CST-1368DR,5016,6432,13706,0.522,551
2021-12-26T01:04:31,42.805,6.029,CST-1368DR,5016,6431,13705,0.522,551
2021-12-26T01:07:33,42.805,6.029,CST-1368DR,5016,6431,13704,0.522,551
2021-12-26T01:10:35,42.805,6.029,CST-1368DR,5016,6431,13705,0.522,551
2021-12-26T01:13:36,42.805,6.029,CST-1368DR,5016,6431,13705,0.522,551
2021-12-26T01:16:38,42.805,6.029,CST-1368DR,5016,6430,13703,0.523,551
2021-12-26T01:19:39,42.805,6.029,CST-1368DR,5016,6431,13705,0.522,551
2021-12-26T01:22:41,42.805,6.029,CST-1368DR,5016,6430,13703,0.523,551
2021-12-26T01:25:42,42.805,6.029,CST-1368DR,5016,6431,13704,0.522,551
2021-12-26T01:28:44,42.805,6.029,CST-1368DR,5016,6431,13704,0.522,551
2021-12-26T01:31:46,42.805,6.029,CST-1368DR,5016,6431,13705,0.522,551
2021-12-26T01:34:47,42.805,6.029,CST-1368DR,5016,6430,13703,0.523,551
2021-12-26T01:37:49,42.805,6.029,CST-1368DR,5016,6432,13706,0.522,551
2021-12-26T01:40:50,42.805,6.029,CST-1368DR,5016,6431,13704,0.522,551
2021-12-26T01:43:52,42.805,6.029,CST-1368DR,5016,6431,13705,0.522,551
2021-12-26T01:46:54,42.805,6.029,CST-1368DR,5016,6430,13702,0.523,551
2021-12-26T01:49:55,42.805,6.029,CST-1368DR,5016,6431,13704,0.522,551
2021-12-26T01:52:57,42.805,6.029,CST-1368DR,5016,6430,13703,0.523,551
2021-12-26T01:55:58,42.805,6.029,CST-1368DR,5016,6431,13704,0.522,551
2021-12-26T01:59:00,42.805,6.029,CST-1368DR,5016,6431,13705,0.522,551
2021-12-26T02:02:01,42.805,6.029,CST-1368DR,5015,6430,13706,0.522,551
2021-12-26T02:05:03,42.805,6.029,CST-1368DR,5015,6431,13707,0.522,551
2021-12-26T02:08:05,42.805,6.029,CST-1368DR,5016,6431,13704,0.522,551
2021-12-26T02:11:06,42.805,6.029,CST-1368DR,5015,6431,13706,0.522,551
2021-12-26T02:14:08,42.805,6.029,CST-1368DR,5016,6431,13704,0.522,551
2021-12-26T02:17:09,42.805,6.029,CST-1368DR,5015,6431,13707,0.522,551
2021-12-26T02:20:11,42.805,6.029,CST-1368DR,5016,6430,13703,0.523,551
2021-12-26T02:23:13,42.805,6.029,CST-1368DR,5015,6431,13707,0.522,551
2021-12-26T02:26:14,42.805,6.029,CST-1368DR,5016,6432,13706,0.522,551
2021-12-26T02:29:16,42.805,6.029,CST-1368DR,5016,6431,13704,0.522,551
2021-12-26T02:32:17,42.805,6.029,CST-1368DR,5016,6432,13706,0.522,551
2021-12-26T02:35:19,42.805,6.029,CST-1368DR,5016,6431,13704,0.522,551
2021-12-26T02:38:20,42.805,6.029,CST-1368DR,5015,6431,13706,0.522,551
2021-12-26T02:41:22,42.805,6.029,CST-1368DR,5015,6432,13708,0.521,551
2021-12-26T02:44:24,42.805,6.029,CST-1368DR,5016,6432,13706,0.522,551
2021-12-26T02:47:25,42.805,6.029,CST-1368DR,5016,6432,13706,0.522,551
2021-12-26T02:50:27,42.805,6.029,CST-1368DR,5016,6431,13705,0.522,551
2021-12-26T02:53:28,42.805,6.029,CST-1368DR,5016,6431,13704,0.522,551
2021-12-26T02:56:30,42.805,6.029,CST-1368DR,5016,6432,13706,0.522,551
2021-12-26T02:59:31,42.805,6.029,CST-1368DR,5016,6431,13704,0.522,551
2021-12-26T03:02:33,42.805,6.029,CST-1368DR,5015,6432,13709,0.521,551
2021-12-26T03:05:35,42.805,6.029,CST-1368DR,5015,6431,13707,0.522,551
2021-12-26T03:08:36,42.805,6.029,CST-1368DR,5016,6432,13706,0.522,551
2021-12-26T03:11:38,42.805,6.029,CST-1368DR,5015,6432,13710,0.521,551
2021-12-26T03:14:39,42.805,6.029,CST-1368DR,5015,6432,13709,0.521,551
2021-12-26T03:17:41,42.805,6.029,CST-1368DR,5016,6431,13705,0.522,551
2021-12-26T03:20:43,42.805,6.029,CST-1368DR,5015,6431,13708,0.521,551
2021-12-26T03:23:44,42.805,6.029,CST-1368DR,5015,6431,13707,0.522,551
2021-12-26T03:26:46,42.805,6.029,CST-1368DR,5015,6431,13707,0.522,551
2021-12-26T03:29:47,42.805,6.029,CST-1368DR,5015,6431,13707,0.522,551
2021-12-26T03:32:49,42.805,6.029,CST-1368DR,5015,6431,13708,0.521,550
2021-12-26T03:35:50,42.805,6.029,CST-1368DR,5015,6431,13706,0.522,551
2021-12-26T03:38:52,42.805,6.029,CST-1368DR,5015,6431,13708,0.521,551
2021-12-26T03:41:54,42.805,6.029,CST-1368DR,5015,6431,13708,0.521,551
2021-12-26T03:44:55,42.805,6.029,CST-1368DR,5015,6430,13705,0.522,551
2021-12-26T03:47:57,42.805,6.029,CST-1368DR,5015,6432,13708,0.521,551
2021-12-26T03:50:58,42.805,6.029,CST-1368DR,5015,6430,13706,0.522,551
2021-12-26T03:54:00,42.805,6.029,CST-1368DR,5015,6431,13708,0.521,551
2021-12-26T03:57:02,42.805,6.029,CST-1368DR,5015,6432,13708,0.521,551
2021-12-26T04:00:03,42.805,6.029,CST-1368DR,5015,6431,13708,0.521,551
2021-12-26T04:03:05,42.805,6.029,CST-1368DR,5015,6430,13705,0.522,551
2021-12-26T04:06:06,42.805,6.029,CST-1368DR,5015,6431,13708,0.521,551
2021-12-26T04:09:08,42.805,6.029,CST-1368DR,5015,6431,13706,0.522,551
2021-12-26T04:12:09,42.805,6.029,CST-1368DR,5015,6431,13708,0.521,551
2021-12-26T04:15:11,42.805,6.029,CST-1368DR,5015,6431,13707,0.522,551
2021-12-26T04:18:13,42.805,6.029,CST-1368DR,5015,6431,13706,0.522,551
2021-12-26T04:21:14,42.805,6.029,CST-1368DR,5015,6430,13704,0.522,551
2021-12-26T04:24:16,42.805,6.029,CST-1368DR,5015,6431,13706,0.522,551
2021-12-26T04:27:17,42.805,6.029,CST-1368DR,5015,6431,13707,0.522,551
2021-12-26T04:30:19,42.805,6.029,CST-1368DR,5015,6431,13706,0.522,551
2021-12-26T04:33:21,42.805,6.029,CST-1368DR,5015,6431,13706,0.522,551
2021-12-26T04:36:22,42.805,6.029,CST-1368DR,5015,6431,13707,0.522,551
2021-12-26T04:39:24,42.805,6.029,CST-1368DR,5015,6431,13706,0.522,551
2021-12-26T04:42:25,42.805,6.029,CST-1368DR,5015,6431,13707,0.522,551
2021-12-26T04:45:27,42.805,6.029,CST-1368DR,5015,6431,13706,0.522,551
2021-12-26T04:48:28,42.805,6.029,CST-1368DR,5015,6431,13707,0.522,551
2021-12-26T04:51:30,42.805,6.029,CST-1368DR,5015,6431,13707,0.522,551
2021-12-26T04:54:32,42.805,6.029,CST-1368DR,5015,6430,13706,0.522,551
2021-12-26T04:57:33,42.805,6.029,CST-1368DR,5015,6431,13706,0.522,551
2021-12-26T05:00:35,42.805,6.029,CST-1368DR,5015,6431,13707,0.522,551
2021-12-26T05:03:36,42.805,6.029,CST-1368DR,5015,6430,13706,0.522,551
2021-12-26T05:06:38,42.805,6.029,CST-1368DR,5015,6430,13705,0.522,551
2021-12-26T05:09:39,42.805,6.029,CST-1368DR,5015,6430,13706,0.522,551
2021-12-26T05:12:41,42.805,6.029,CST-1368DR,5015,6431,13707,0.522,551
2021-12-26T05:15:43,42.805,6.029,CST-1368DR,5015,6430,13706,0.522,551
2021-12-26T05:18:44,42.805,6.029,CST-1368DR,5015,6431,13707,0.522,551
2021-12-26T05:21:46,42.805,6.029,CST-1368DR,5015,6431,13706,0.522,551
2021-12-26T05:24:47,42.805,6.029,CST-1368DR,5015,6431,13706,0.522,551
2021-12-26T05:27:49,42.805,6.029,CST-1368DR,5015,6431,13707,0.522,551
2021-12-26T05:30:51,42.805,6.029,CST-1368DR,5015,6431,13706,0.522,551
2021-12-26T05:33:52,42.805,6.029,CST-1368DR,5015,6430,13704,0.522,551
2021-12-26T05:36:54,42.805,6.029,CST-1368DR,5015,6430,13706,0.522,551
2021-12-26T05:39:55,42.805,6.029,CST-1368DR,5015,6430,13705,0.522,551
2021-12-26T05:42:57,42.805,6.029,CST-1368DR,5015,6430,13705,0.522,551
2021-12-26T05:45:58,42.805,6.029,CST-1368DR,5015,6430,13705,0.522,551
2021-12-26T05:49:00,42.805,6.029,CST-1368DR,5015,6430,13704,0.522,551
2021-12-26T05:52:02,42.805,6.029,CST-1368DR,5015,6430,13705,0.522,551
2021-12-26T05:55:03,42.805,6.029,CST-1368DR,5015,6429,13703,0.523,551
2021-12-26T05:58:05,42.805,6.029,CST-1368DR,5015,6429,13702,0.523,551
2021-12-26T06:01:06,42.805,6.029,CST-1368DR,5015,6431,13706,0.522,551
2021-12-26T06:04:08,42.805,6.029,CST-1368DR,5015,6430,13704,0.522,551
2021-12-26T06:07:09,42.805,6.029,CST-1368DR,5015,6429,13704,0.522,551
2021-12-26T06:10:11,42.805,6.029,CST-1368DR,5015,6430,13705,0.522,551
2021-12-26T06:13:13,42.805,6.029,CST-1368DR,5015,6429,13702,0.523,551
2021-12-26T06:16:14,42.805,6.029,CST-1368DR,5015,6430,13705,0.522,551
2021-12-26T06:19:16,42.805,6.029,CST-1368DR,5015,6430,13705,0.522,551
2021-12-26T06:22:17,42.805,6.029,CST-1368DR,5015,6429,13704,0.522,551
2021-12-26T06:25:19,42.805,6.029,CST-1368DR,5015,6430,13705,0.522,551
2021-12-26T06:28:21,42.805,6.029,CST-1368DR,5015,6430,13704,0.522,551
2021-12-26T06:31:22,42.805,6.029,CST-1368DR,5015,6428,13702,0.523,551
2021-12-26T06:34:24,42.805,6.029,CST-1368DR,5015,6430,13705,0.522,551
2021-12-26T06:37:25,42.805,6.029,CST-1368DR,5015,6429,13703,0.523,551
2021-12-26T06:40:27,42.805,6.029,CST-1368DR,5015,6428,13702,0.523,551
2021-12-26T06:43:28,42.805,6.029,CST-1368DR,5015,6429,13703,0.523,551
2021-12-26T06:46:30,42.805,6.029,CST-1368DR,5015,6430,13705,0.522,551
2021-12-26T06:49:32,42.805,6.029,CST-1368DR,5015,6430,13704,0.522,551
2021-12-26T06:52:33,42.805,6.029,CST-1368DR,5015,6430,13706,0.522,551
2021-12-26T06:55:35,42.805,6.029,CST-1368DR,5015,6430,13705,0.522,551
2021-12-26T06:58:36,42.805,6.029,CST-1368DR,5015,6430,13705,0.522,551
2021-12-26T07:01:38,42.805,6.029,CST-1368DR,5015,6429,13702,0.523,551
2021-12-26T07:04:40,42.805,6.029,CST-1368DR,5015,6430,13705,0.522,551
2021-12-26T07:07:41,42.805,6.029,CST-1368DR,5015,6430,13705,0.522,550
2021-12-26T07:10:43,42.805,6.029,CST-1368DR,5015,6430,13705,0.522,551
2021-12-26T07:13:44,42.805,6.029,CST-1368DR,5015,6430,13706,0.522,551
2021-12-26T07:16:46,42.805,6.029,CST-1368DR,5015,6429,13703,0.523,551
2021-12-26T07:19:47,42.805,6.029,CST-1368DR,5015,6430,13705,0.522,551
2021-12-26T07:22:49,42.805,6.029,CST-1368DR,5015,6429,13703,0.523,551
2021-12-26T07:25:51,42.805,6.029,CST-1368DR,5015,6430,13704,0.522,551
2021-12-26T07:28:52,42.805,6.029,CST-1368DR,5015,6430,13705,0.522,551
2021-12-26T07:31:54,42.805,6.029,CST-1368DR,5015,6431,13706,0.522,551
2021-12-26T07:34:55,42.805,6.029,CST-1368DR,5015,6430,13704,0.522,551
2021-12-26T07:37:57,42.805,6.029,CST-1368DR,5015,6428,13700,0.524,551
2021-12-26T07:40:58,42.805,6.029,CST-1368DR,5015,6429,13704,0.522,551
2021-12-26T07:44:00,42.805,6.029,CST-1368DR,5015,6430,13705,0.522,551
2021-12-26T07:47:02,42.805,6.029,CST-1368DR,5015,6430,13705,0.522,551
2021-12-26T07:50:03,42.805,6.029,CST-1368DR,5015,6429,13704,0.522,550
2021-12-26T07:53:05,42.805,6.029,CST-1368DR,5015,6430,13704,0.522,551
2021-12-26T07:56:06,42.805,6.029,CST-1368DR,5015,6429,13703,0.523,551
2021-12-26T07:59:08,42.805,6.029,CST-1368DR,5015,6429,13704,0.522,551
2021-12-26T08:02:10,42.805,6.029,CST-1368DR,5015,6429,13703,0.523,551
2021-12-26T08:05:11,42.805,6.029,CST-1368DR,5015,6430,13705,0.522,551
2021-12-26T08:08:13,42.805,6.029,CST-1368DR,5015,6428,13700,0.524,551
2021-12-26T08:11:14,42.805,6.029,CST-1368DR,5015,6429,13703,0.523,551
2021-12-26T08:14:16,42.805,6.029,CST-1368DR,5015,6430,13705,0.522,551
2021-12-26T08:17:17,42.805,6.029,CST-1368DR,5015,6430,13705,0.522,551
2021-12-26T08:20:19,42.805,6.029,CST-1368DR,5015,6430,13705,0.522,551
2021-12-26T08:23:21,42.805,6.029,CST-1368DR,5015,6429,13704,0.522,551
2021-12-26T08:26:22,42.805,6.029,CST-1368DR,5015,6429,13703,0.523,551
2021-12-26T08:29:24,42.805,6.029,CST-1368DR,5015,6429,13704,0.522,551
2021-12-26T08:32:25,42.805,6.029,CST-1368DR,5015,6430,13704,0.522,551
2021-12-26T08:35:27,42.805,6.029,CST-1368DR,5015,6429,13704,0.522,551
2021-12-26T08:38:29,42.805,6.029,CST-1368DR,5015,6429,13703,0.523,551
2021-12-26T08:41:30,42.805,6.029,CST-1368DR,5015,6430,13704,0.522,551
2021-12-26T08:44:32,42.805,6.029,CST-1368DR,5015,6429,13702,0.523,551
2021-12-26T08:47:33,42.805,6.029,CST-1368DR,5015,6429,13704,0.522,551
2021-12-26T08:50:35,42.805,6.029,CST-1368DR,5015,6429,13702,0.523,551
2021-12-26T08:53:36,42.805,6.029,CST-1368DR,5015,6430,13704,0.522,551
2021-12-26T08:56:38,42.805,6.029,CST-1368DR,5015,6430,13704,0.522,551
2021-12-26T08:59:40,42.805,6.029,CST-1368DR,5015,6430,13704,0.522,551
2021-12-26T09:02:41,42.805,6.029,CST-1368DR,5015,6429,13704,0.522,551
2021-12-26T09:05:43,42.805,6.029,CST-1368DR,5015,6429,13703,0.523,551
2021-12-26T09:08:44,42.805,6.029,CST-1368DR,5015,6429,13702,0.523,551
2021-12-26T09:11:46,42.805,6.029,CST-1368DR,5015,6429,13703,0.523,551
2021-12-26T09:14:48,42.805,6.029,CST-1368DR,5015,6428,13701,0.523,551
2021-12-26T09:17:49,42.805,6.029,CST-1368DR,5015,6427,13699,0.524,551
2021-12-26T09:20:51,42.805,6.029,CST-1368DR,5015,6427,13699,0.524,551
2021-12-26T09:23:52,42.805,6.029,CST-1368DR,5015,6427,13699,0.524,551
2021-12-26T09:26:54,42.805,6.029,CST-1368DR,5015,6427,13699,0.524,551
2021-12-26T09:29:55,42.805,6.029,CST-1368DR,5015,6427,13699,0.524,551
2021-12-26T09:32:57,42.805,6.029,CST-1368DR,5015,6428,13701,0.523,551
2021-12-26T09:35:59,42.805,6.029,CST-1368DR,5015,6426,13696,0.525,551
2021-12-26T09:39:00,42.805,6.029,CST-1368DR,5015,6426,13696,0.525,551
2021-12-26T09:42:02,42.805,6.029,CST-1368DR,5015,6428,13700,0.524,551
2021-12-26T09:45:03,42.805,6.029,CST-1368DR,5015,6426,13696,0.525,551
2021-12-26T09:48:05,42.805,6.029,CST-1368DR,5014,6426,13700,0.524,550
2021-12-26T09:51:06,42.805,6.029,CST-1368DR,5015,6428,13700,0.524,551
2021-12-26T09:54:08,42.805,6.029,CST-1368DR,5015,6428,13700,0.524,551
2021-12-26T09:57:10,42.805,6.029,CST-1368DR,5014,6424,13696,0.525,551
2021-12-26T10:00:11,42.805,6.029,CST-1368DR,5014,6424,13695,0.525,551
2021-12-26T10:03:13,42.805,6.029,CST-1368DR,5014,6417,13680,0.529,551
2021-12-26T10:06:14,42.805,6.029,CST-1368DR,5014,6427,13700,0.524,551
2021-12-26T10:09:16,42.805,6.029,CST-1368DR,5014,6429,13706,0.522,550
2021-12-26T10:12:18,42.805,6.029,CST-1368DR,5014,6427,13702,0.523,551
2021-12-26T10:15:19,42.805,6.029,CST-1368DR,5014,6428,13703,0.523,551
2021-12-26T10:18:21,42.805,6.029,CST-1368DR,5014,6428,13703,0.523,551
2021-12-26T10:21:22,42.805,6.029,CST-1368DR,5014,6427,13701,0.523,551
2021-12-26T10:24:24,42.805,6.029,CST-1368DR,5014,6426,13700,0.524,551
2021-12-26T10:27:25,42.805,6.029,CST-1368DR,5014,6428,13703,0.523,551
2021-12-26T10:30:27,42.805,6.029,CST-1368DR,5014,6426,13700,0.524,551
2021-12-26T10:33:29,42.805,6.029,CST-1368DR,5014,6427,13701,0.523,551
2021-12-26T10:36:30,42.805,6.029,CST-1368DR,5014,6426,13699,0.524,550
2021-12-26T10:39:32,42.805,6.029,CST-1368DR,5014,6425,13697,0.524,551
2021-12-26T10:42:33,42.805,6.029,CST-1368DR,5014,6427,13700,0.524,551
2021-12-26T10:45:35,42.805,6.029,CST-1368DR,5014,6427,13700,0.524,551
2021-12-26T10:48:37,42.805,6.029,CST-1368DR,5014,6427,13702,0.523,551
2021-12-26T10:51:38,42.805,6.029,CST-1368DR,5014,6428,13704,0.522,551
2021-12-26T10:54:40,42.805,6.029,CST-1368DR,5014,6426,13698,0.524,551
2021-12-26T10:57:41,42.805,6.029,CST-1368DR,5014,6428,13703,0.523,551
2021-12-26T11:00:43,42.805,6.029,CST-1368DR,5014,6428,13703,0.523,551
2021-12-26T11:03:44,42.805,6.029,CST-1368DR,5014,6428,13703,0.523,551
2021-12-26T11:06:46,42.805,6.029,CST-1368DR,5014,6428,13704,0.522,550
2021-12-26T11:09:48,42.805,6.029,CST-1368DR,5014,6426,13700,0.524,551
2021-12-26T11:12:49,42.805,6.029,CST-1368DR,5014,6428,13703,0.523,551
2021-12-26T11:15:51,42.805,6.029,CST-1368DR,5014,6428,13703,0.523,551
2021-12-26T11:18:52,42.805,6.029,CST-1368DR,5014,6428,13704,0.522,550
2021-12-26T11:21:54,42.805,6.029,CST-1368DR,5014,6428,13704,0.522,551
2021-12-26T11:24:56,42.805,6.029,CST-1368DR,5014,6427,13701,0.523,551
2021-12-26T11:27:57,42.805,6.029,CST-1368DR,5014,6428,13704,0.522,551
2021-12-26T11:30:59,42.805,6.029,CST-1368DR,5014,6428,13704,0.522,551
2021-12-26T11:34:00,42.805,6.029,CST-1368DR,5014,6429,13705,0.522,551
2021-12-26T11:37:02,42.805,6.029,CST-1368DR,5014,6427,13702,0.523,551
2021-12-26T11:40:03,42.805,6.029,CST-1368DR,5014,6426,13699,0.524,551
2021-12-26T11:43:05,42.805,6.029,CST-1368DR,5014,6427,13702,0.523,551
2021-12-26T11:46:07,42.805,6.029,CST-1368DR,5014,6428,13704,0.522,551
2021-12-26T11:49:08,42.805,6.029,CST-1368DR,5014,6428,13704,0.522,551
2021-12-26T11:52:10,42.805,6.029,CST-1368DR,5014,6427,13701,0.523,551
2021-12-26T11:55:11,42.805,6.029,CST-1368DR,5014,6428,13704,0.522,551
2021-12-26T11:58:13,42.805,6.029,CST-1368DR,5014,6428,13703,0.523,551
2021-12-26T12:01:14,42.805,6.029,CST-1368DR,5014,6427,13700,0.524,551
2021-12-26T12:04:16,42.805,6.029,CST-1368DR,5014,6428,13704,0.522,551
2021-12-26T12:07:18,42.805,6.029,CST-1368DR,5014,6428,13704,0.522,551
2021-12-26T12:10:19,42.805,6.029,CST-1368DR,5014,6428,13704,0.522,551
2021-12-26T12:13:21,42.805,6.029,CST-1368DR,5014,6428,13704,0.522,551
2021-12-26T12:16:22,42.805,6.029,CST-1368DR,5014,6428,13704,0.522,551
2021-12-26T12:19:24,42.805,6.029,CST-1368DR,5014,6427,13701,0.523,551
2021-12-26T12:22:26,42.805,6.029,CST-1368DR,5014,6428,13703,0.523,551
2021-12-26T12:25:27,42.805,6.029,CST-1368DR,5014,6428,13704,0.522,551
2021-12-26T12:28:29,42.805,6.029,CST-1368DR,5014,6428,13703,0.523,551
2021-12-26T12:31:30,42.805,6.029,CST-1368DR,5014,6428,13704,0.522,551
2021-12-26T12:34:32,42.805,6.029,CST-1368DR,5014,6428,13703,0.523,551
2021-12-26T12:37:33,42.805,6.029,CST-1368DR,5014,6428,13704,0.522,551
2021-12-26T12:40:35,42.805,6.029,CST-1368DR,5014,6428,13703,0.523,551
2021-12-26T12:43:37,42.805,6.029,CST-1368DR,5014,6426,13700,0.524,551
2021-12-26T12:46:38,42.805,6.029,CST-1368DR,5014,6428,13703,0.523,551
2021-12-26T12:49:40,42.805,6.029,CST-1368DR,5014,6428,13704,0.522,551
2021-12-26T12:52:41,42.805,6.029,CST-1368DR,5014,6428,13704,0.522,551
2021-12-26T12:55:43,42.805,6.029,CST-1368DR,5014,6427,13700,0.524,551
2021-12-26T12:58:45,42.805,6.029,CST-1368DR,5014,6428,13704,0.522,551
2021-12-26T13:01:46,42.805,6.029,CST-1368DR,5014,6428,13703,0.523,551
2021-12-26T13:04:48,42.805,6.029,CST-1368DR,5014,6428,13703,0.523,551
2021-12-26T13:07:49,42.805,6.029,CST-1368DR,5014,6427,13702,0.523,551
2021-12-26T13:10:51,42.805,6.029,CST-1368DR,5014,6429,13705,0.522,551
2021-12-26T13:13:52,42.805,6.029,CST-1368DR,5014,6427,13702,0.523,551
2021-12-26T13:16:54,42.805,6.029,CST-1368DR,5014,6428,13703,0.523,551
2021-12-26T13:19:56,42.805,6.029,CST-1368DR,5014,6426,13698,0.524,551
2021-12-26T13:22:57,42.805,6.029,CST-1368DR,5014,6427,13701,0.523,551
2021-12-26T13:25:59,42.805,6.029,CST-1368DR,5014,6427,13701,0.523,551
2021-12-26T13:29:00,42.805,6.029,CST-1368DR,5014,6427,13700,0.524,551
2021-12-26T13:32:02,42.805,6.029,CST-1368DR,5014,6427,13702,0.523,551
2021-12-26T13:35:04,42.805,6.029,CST-1368DR,5014,6427,13701,0.523,551
2021-12-26T13:38:05,42.805,6.029,CST-1368DR,5014,6428,13704,0.522,551
2021-12-26T13:41:07,42.805,6.029,CST-1368DR,5014,6427,13701,0.523,551
2021-12-26T13:44:08,42.805,6.029,CST-1368DR,5014,6427,13702,0.523,551
2021-12-26T13:47:10,42.805,6.029,CST-1368DR,5014,6427,13701,0.523,551
2021-12-26T13:50:11,42.805,6.029,CST-1368DR,5014,6426,13700,0.524,551
2021-12-26T13:53:13,42.805,6.029,CST-1368DR,5014,6426,13699,0.524,551
2021-12-26T13:56:15,42.805,6.029,CST-1368DR,5014,6427,13702,0.523,551
2021-12-26T13:59:16,42.805,6.029,CST-1368DR,5014,6426,13699,0.524,551
2021-12-26T14:02:18,42.805,6.029,CST-1368DR,5014,6426,13700,0.524,551
2021-12-26T14:05:19,42.805,6.029,CST-1368DR,5014,6427,13701,0.523,551
2021-12-26T14:08:21,42.805,6.029,CST-1368DR,5014,6427,13701,0.523,551
2021-12-26T14:11:23,42.805,6.029,CST-1368DR,5014,6427,13701,0.523,551
2021-12-26T14:14:24,42.805,6.029,CST-1368DR,5014,6427,13701,0.523,551
2021-12-26T14:17:26,42.805,6.029,CST-1368DR,5014,6427,13700,0.524,551
2021-12-26T14:20:27,42.805,6.029,CST-1368DR,5014,6427,13701,0.523,551
2021-12-26T14:23:29,42.805,6.029,CST-1368DR,5014,6427,13702,0.523,551
2021-12-26T14:26:30,42.805,6.029,CST-1368DR,5014,6427,13702,0.523,551
2021-12-26T14:29:32,42.805,6.029,CST-1368DR,5014,6427,13701,0.523,551
2021-12-26T14:32:34,42.805,6.029,CST-1368DR,5014,6427,13702,0.523,551
2021-12-26T14:35:35,42.805,6.029,CST-1368DR,5014,6427,13701,0.523,551
2021-12-26T14:38:37,42.805,6.029,CST-1368DR,5014,6427,13701,0.523,551
2021-12-26T14:41:38,42.805,6.029,CST-1368DR,5014,6427,13701,0.523,551
2021-12-26T14:44:40,42.805,6.029,CST-1368DR,5014,6427,13700,0.524,551
2021-12-26T14:47:41,42.805,6.029,CST-1368DR,5014,6426,13699,0.524,551
2021-12-26T14:50:43,42.805,6.029,CST-1368DR,5014,6427,13701,0.523,551
2021-12-26T14:53:45,42.805,6.029,CST-1368DR,5014,6426,13700,0.524,551
2021-12-26T14:56:46,42.805,6.029,CST-1368DR,5014,6427,13701,0.523,551
2021-12-26T14:59:48,42.805,6.029,CST-1368DR,5014,6427,13702,0.523,551
2021-12-26T15:02:49,42.805,6.029,CST-1368DR,5014,6427,13702,0.523,551
2021-12-26T15:05:51,42.805,6.029,CST-1368DR,5014,6427,13702,0.523,551
2021-12-26T15:08:53,42.805,6.029,CST-1368DR,5014,6427,13702,0.523,551
2021-12-26T15:11:54,42.805,6.029,CST-1368DR,5014,6427,13702,0.523,551
2021-12-26T15:14:56,42.805,6.029,CST-1368DR,5014,6427,13700,0.524,551
2021-12-26T15:17:57,42.805,6.029,CST-1368DR,5014,6427,13701,0.523,551
2021-12-26T15:20:59,42.805,6.029,CST-1368DR,5014,6427,13701,0.523,551
2021-12-26T15:24:00,42.805,6.029,CST-1368DR,5014,6419,13684,0.528,551
2021-12-26T15:27:02,42.805,6.029,CST-1368DR,5014,6427,13701,0.523,551
2021-12-26T15:30:04,42.805,6.029,CST-1368DR,5014,6427,13700,0.524,551
2021-12-26T15:33:05,42.805,6.029,CST-1368DR,5014,6426,13700,0.524,551
2021-12-26T15:36:07,42.805,6.029,CST-1368DR,5014,6427,13700,0.524,551
2021-12-26T15:39:08,42.805,6.029,CST-1368DR,5014,6426,13700,0.524,551
2021-12-26T15:42:10,42.805,6.029,CST-1368DR,5014,6426,13699,0.524,551
2021-12-26T15:45:12,42.805,6.029,CST-1368DR,5014,6427,13700,0.524,551
2021-12-26T15:48:13,42.805,6.029,CST-1368DR,5014,6426,13700,0.524,551
2021-12-26T15:51:15,42.805,6.029,CST-1368DR,5014,6426,13699,0.524,551
2021-12-26T15:54:16,42.805,6.029,CST-1368DR,5014,6424,13695,0.525,551
2021-12-26T15:57:18,42.805,6.029,CST-1368DR,5014,6426,13699,0.524,551
2021-12-26T16:00:19,42.805,6.029,CST-1368DR,5014,6426,13699,0.524,551
2021-12-26T16:03:21,42.805,6.029,CST-1368DR,5014,6427,13700,0.524,551
2021-12-26T16:06:23,42.805,6.029,CST-1368DR,5014,6427,13700,0.524,551
2021-12-26T16:09:24,42.805,6.029,CST-1368DR,5014,6427,13701,0.523,550
2021-12-26T16:12:26,42.805,6.029,CST-1368DR,5014,6427,13701,0.523,551
2021-12-26T16:15:27,42.805,6.029,CST-1368DR,5014,6426,13700,0.524,551
2021-12-26T16:18:29,42.805,6.029,CST-1368DR,5014,6426,13700,0.524,551
2021-12-26T16:21:30,42.805,6.029,CST-1368DR,5014,6426,13700,0.524,551
2021-12-26T16:24:32,42.805,6.029,CST-1368DR,5014,6427,13701,0.523,551
2021-12-26T16:27:34,42.805,6.029,CST-1368DR,5014,6427,13702,0.523,551
2021-12-26T16:30:35,42.805,6.029,CST-1368DR,5014,6427,13702,0.523,550
2021-12-26T16:33:37,42.805,6.029,CST-1368DR,5014,6427,13700,0.524,551
2021-12-26T16:36:38,42.805,6.029,CST-1368DR,5014,6426,13699,0.524,551
2021-12-26T16:39:40,42.805,6.029,CST-1368DR,5014,6426,13700,0.524,551
2021-12-26T16:42:42,42.805,6.029,CST-1368DR,5014,6426,13698,0.524,551
2021-12-26T16:45:43,42.805,6.029,CST-1368DR,5014,6426,13699,0.524,551
2021-12-26T16:48:45,42.805,6.029,CST-1368DR,5014,6428,13703,0.523,551
2021-12-26T16:51:46,42.805,6.029,CST-1368DR,5014,6427,13702,0.523,551